When you browse on this site, cookies collect data to enhance your experience and personalize the content and advertising you see.
Visit our Privacy Policy to learn more. By continuing to use the site, you agree to this use of cookies and data.
  • în România
  • Lista ţărilor
  • Pe 7 zile
  • Temperatura apei
  • Meteo pe hartă
  • Widget-uri
  • user-avatar
    Intrare

    Meteo pe oră la Mayrhofen

    Astăzi, 22 Februarie, Sâmbătă

    Timp Temperatura Precipitaţii Vânt Presiune Umiditate
    00:00 -3°C° 0 mm 1 m/s 621 mmHg 60%
    01:00 -5°C° 0 mm 2 m/s 622 mmHg 53%
    02:00 -5°C° 0 mm 2 m/s 621 mmHg 51%
    03:00 -5°C° 0 mm 2 m/s 621 mmHg 50%
    04:00 -5°C° 0 mm 2 m/s 621 mmHg 49%
    05:00 -2°C° 0 mm 1 m/s 621 mmHg 50%
    06:00 -2°C° 0 mm 1 m/s 622 mmHg 50%
    07:00 -1°C° 0 mm 1 m/s 622 mmHg 51%
    08:00 +1°C° 0 mm 1 m/s 623 mmHg 58%
    09:00 +2°C° 0 mm 1 m/s 623 mmHg 65%
    10:00 +4°C° 0 mm 1 m/s 624 mmHg 72%
    11:00 +5°C° 0 mm 1 m/s 624 mmHg 73%
    12:00 +6°C° 0 mm 1 m/s 624 mmHg 74%
    13:00 +6°C° 0 mm 1 m/s 624 mmHg 75%
    14:00 +6°C° 0 mm 1 m/s 624 mmHg 75%
    15:00 +6°C° 0 mm 1 m/s 623 mmHg 75%
    16:00 +6°C° 0 mm 1 m/s 623 mmHg 75%
    17:00 +4°C° 0 mm 1 m/s 623 mmHg 69%
    18:00 +3°C° 0 mm 1 m/s 622 mmHg 64%
    19:00 +2°C° 0 mm 1 m/s 622 mmHg 59%
    20:00 +2°C° 0 mm 1 m/s 622 mmHg 57%
    21:00 +2°C° 0 mm 1 m/s 622 mmHg 55%
    22:00 +1°C° 0 mm 1 m/s 622 mmHg 54%
    23:00 +1°C° 0 mm 1 m/s 622 mmHg 54%

    Mâine, 23 Februarie, Duminică

    Timp Temperatura Precipitaţii Vânt Presiune Umiditate
    00:00 +1°C° 0 mm 1 m/s 622 mmHg 54%
    01:00 +1°C° 0 mm 1 m/s 622 mmHg 54%
    02:00 +1°C° 0 mm 1 m/s 622 mmHg 54%
    03:00 +1°C° 0 mm 1 m/s 622 mmHg 54%
    04:00 -1°C° 0 mm 2 m/s 621 mmHg 54%
    05:00 +1°C° 0 mm 1 m/s 621 mmHg 55%
    06:00 +1°C° 0 mm 1 m/s 621 mmHg 55%
    07:00 +1°C° 0 mm 1 m/s 621 mmHg 55%
    08:00 +2°C° 0 mm 1 m/s 621 mmHg 61%
    09:00 +4°C° 0 mm 1 m/s 621 mmHg 66%
    10:00 +5°C° 0 mm 1 m/s 622 mmHg 72%
    11:00 +6°C° 0 mm 1 m/s 621 mmHg 73%
    12:00 +7°C° 0 mm 1 m/s 621 mmHg 73%
    13:00 +7°C° 0 mm 1 m/s 621 mmHg 74%
    14:00 +7°C° 0 mm 1 m/s 620 mmHg 77%
    15:00 +6°C° 0 mm 1 m/s 620 mmHg 79%
    16:00 +6°C° 0 mm 1 m/s 619 mmHg 81%
    17:00 +5°C° 0 mm 1 m/s 619 mmHg 82%
    18:00 +4°C° 0 mm 2 m/s 619 mmHg 82%
    19:00 +3°C° 0 mm 2 m/s 619 mmHg 82%
    20:00 +3°C° 0 mm 2 m/s 619 mmHg 84%
    21:00 +3°C° 0 mm 2 m/s 619 mmHg 86%
    22:00 +3°C° 0 mm 2 m/s 619 mmHg 88%
    23:00 +3°C° 0.2 mm 2 m/s 619 mmHg 91%

    Poimâine, 24 Februarie, Luni

    Timp Temperatura Precipitaţii Vânt Presiune Umiditate
    00:00 +2°C° 0.2 mm 2 m/s 619 mmHg 93%
    01:00 +2°C° 0.2 mm 2 m/s 619 mmHg 96%
    02:00 +2°C° 0.6 mm 2 m/s 619 mmHg 96%
    03:00 +2°C° 0.6 mm 2 m/s 619 mmHg 96%
    04:00 +2°C° 0.6 mm 2 m/s 619 mmHg 97%
    05:00 +2°C° 1.1 mm 2 m/s 619 mmHg 97%
    06:00 +1°C° 1.1 mm 2 m/s 620 mmHg 97%
    07:00 +1°C° 1.1 mm 2 m/s 620 mmHg 98%
    08:00 +2°C° 0.6 mm 2 m/s 620 mmHg 97%
    09:00 +2°C° 0.6 mm 2 m/s 620 mmHg 96%
    10:00 +3°C° 0.6 mm 1 m/s 620 mmHg 96%
    11:00 +4°C° 0.1 mm 1 m/s 620 mmHg 94%
    12:00 +4°C° 0.1 mm 1 m/s 620 mmHg 93%
    13:00 +4°C° 0.1 mm 0 m/s 620 mmHg 91%
    14:00 +5°C° 0 mm 1 m/s 619 mmHg 90%
    15:00 +6°C° 0 mm 1 m/s 619 mmHg 89%
    16:00 +6°C° 0 mm 1 m/s 618 mmHg 88%
    17:00 +5°C° 0 mm 1 m/s 618 mmHg 87%
    18:00 +3°C° 0 mm 2 m/s 617 mmHg 86%
    19:00 +2°C° 0 mm 2 m/s 617 mmHg 85%
    20:00 +1°C° 0 mm 2 m/s 616 mmHg 85%
    21:00 +1°C° 0 mm 2 m/s 616 mmHg 85%
    22:00 +1°C° 0 mm 2 m/s 616 mmHg 85%
    23:00 +1°C° 0 mm 2 m/s 615 mmHg 86%

    25 Februarie, Marţi

    Timp Temperatura Precipitaţii Vânt Presiune Umiditate
    00:00 +1°C° 0 mm 2 m/s 615 mmHg 87%
    01:00 +1°C° 0 mm 2 m/s 615 mmHg 88%
    02:00 +1°C° 0 mm 2 m/s 614 mmHg 88%
    03:00 +1°C° 0 mm 2 m/s 614 mmHg 89%
    04:00 +1°C° 0 mm 1 m/s 613 mmHg 89%
    05:00 +1°C° 0 mm 1 m/s 613 mmHg 89%
    06:00 +1°C° 0 mm 1 m/s 613 mmHg 89%
    07:00 +1°C° 0 mm 1 m/s 613 mmHg 89%
    08:00 +2°C° 0 mm 1 m/s 612 mmHg 89%
    09:00 +3°C° 0 mm 1 m/s 612 mmHg 88%
    10:00 +3°C° 0 mm 1 m/s 612 mmHg 88%
    11:00 +3°C° 0 mm 1 m/s 612 mmHg 88%
    12:00 +3°C° 0 mm 1 m/s 611 mmHg 88%
    13:00 +3°C° 0 mm 1 m/s 611 mmHg 89%
    14:00 +3°C° 0 mm 1 m/s 610 mmHg 89%
    15:00 +3°C° 0 mm 1 m/s 610 mmHg 89%
    16:00 +3°C° 0 mm 1 m/s 609 mmHg 88%
    17:00 +2°C° 0.1 mm 1 m/s 609 mmHg 90%
    18:00 +1°C° 0.1 mm 2 m/s 608 mmHg 92%
    19:00 -1°C° 0.1 mm 2 m/s 608 mmHg 93%
    20:00 -1°C° 0.5 mm 2 m/s 608 mmHg 94%
    21:00 0°C° 0.5 mm 1 m/s 607 mmHg 94%
    22:00 0°C° 0.5 mm 1 m/s 607 mmHg 95%
    23:00 0°C° 0.5 mm 1 m/s 607 mmHg 95%

    26 Februarie, Miercuri

    Timp Temperatura Precipitaţii Vânt Presiune Umiditate
    00:00 -1°C° 0.5 mm 1 m/s 606 mmHg 96%
    01:00 -1°C° 0.5 mm 1 m/s 606 mmHg 96%
    02:00 -1°C° 1.3 mm 1 m/s 605 mmHg 95%
    03:00 -2°C° 1.3 mm 1 m/s 604 mmHg 95%
    04:00 -4°C° 1.3 mm 2 m/s 603 mmHg 94%
    05:00 -5°C° 0.3 mm 2 m/s 603 mmHg 88%
    06:00 -4°C° 0.3 mm 1 m/s 602 mmHg 82%
    07:00 -6°C° 0.3 mm 1 m/s 601 mmHg 76%
    08:00 -7°C° 0.5 mm 2 m/s 602 mmHg 75%
    09:00 -7°C° 0.5 mm 3 m/s 602 mmHg 73%
    10:00 -7°C° 0.5 mm 3 m/s 602 mmHg 72%
    11:00 -8°C° 0.1 mm 4 m/s 602 mmHg 65%
    12:00 -8°C° 0.1 mm 4 m/s 602 mmHg 57%
    13:00 -7°C° 0.1 mm 4 m/s 602 mmHg 50%
    14:00 -8°C° 0.2 mm 4 m/s 602 mmHg 58%
    15:00 -9°C° 0.2 mm 4 m/s 602 mmHg 66%
    16:00 -10°C° 0.2 mm 4 m/s 602 mmHg 74%
    17:00 -11°C° 0.4 mm 4 m/s 603 mmHg 79%
    18:00 -11°C° 0.4 mm 4 m/s 603 mmHg 85%
    19:00 -12°C° 0.4 mm 3 m/s 604 mmHg 91%
    20:00 -12°C° 0.6 mm 3 m/s 604 mmHg 91%
    21:00 -12°C° 0.6 mm 3 m/s 605 mmHg 92%
    22:00 -12°C° 0.6 mm 3 m/s 606 mmHg 92%
    23:00 -12°C° 0.8 mm 3 m/s 607 mmHg 92%

    27 Februarie, Joi

    Timp Temperatura Precipitaţii Vânt Presiune Umiditate
    00:00 -12°C° 0.8 mm 3 m/s 607 mmHg 92%
    01:00 -12°C° 0.8 mm 3 m/s 608 mmHg 92%
    02:00 -12°C° 0.4 mm 3 m/s 608 mmHg 92%
    03:00 -10°C° 0.4 mm 2 m/s 608 mmHg 92%
    04:00 -12°C° 0.4 mm 2 m/s 609 mmHg 92%
    05:00 -12°C° 0.2 mm 2 m/s 609 mmHg 92%
    06:00 -12°C° 0.2 mm 2 m/s 610 mmHg 93%
    07:00 -12°C° 0.2 mm 2 m/s 610 mmHg 93%
    08:00 -10°C° 0.1 mm 2 m/s 611 mmHg 86%
    09:00 -9°C° 0.1 mm 2 m/s 612 mmHg 79%
    10:00 -8°C° 0.1 mm 2 m/s 612 mmHg 73%
    11:00 -7°C° 0 mm 2 m/s 612 mmHg 66%
    12:00 -6°C° 0 mm 1 m/s 612 mmHg 60%
    13:00 -4°C° 0 mm 1 m/s 613 mmHg 54%
    14:00 -3°C° 0 mm 1 m/s 612 mmHg 55%
    15:00 -3°C° 0 mm 1 m/s 612 mmHg 56%
    16:00 -3°C° 0 mm 1 m/s 611 mmHg 57%
    17:00 -6°C° 0.5 mm 2 m/s 611 mmHg 67%
    18:00 -7°C° 0.5 mm 2 m/s 611 mmHg 77%
    19:00 -7°C° 0.5 mm 2 m/s 611 mmHg 88%
    20:00 -7°C° 1.1 mm 2 m/s 611 mmHg 88%
    21:00 -7°C° 1.1 mm 2 m/s 611 mmHg 89%
    22:00 -8°C° 1.1 mm 3 m/s 611 mmHg 90%
    23:00 -7°C° 0.1 mm 2 m/s 611 mmHg 88%
    Arată mai mult